Location: Asheville, NC
(35.6000°N, 82.5500°W)
Time: 16:07:20
(UTC-05:00)

Vanguard 3 - Pass Details

Date: 14 December 2017
Orbit: 508 x 3264 km, 33.4° (Epoch: 15 January)

Event Time Altitude Azimuth Distance (km) Brightness Sun altitude
Rises 16:57:40 0° 271° (W) 2,620 10.9 2.8°
Reaches altitude 10° 16:59:47 10° 260° (W) 1,808 10.5 2.4°
Maximum altitude 17:03:20 31° 196° (SSW) 1,118 8.6 1.8°
Drops below altitude 10° 17:08:09 10° 134° (SE) 2,494 9.5 0.9°
Sets 17:11:36 0° 126° (SE) 3,835 10.4 0.3°
